Location: Wald
(31.7579°N, 86.6655°W)
Time: 12:24:01
(UTC+00:00)

BREEZE-M DEB (TANK) - Pass Details

Date: 14 July 2020
Orbit: 274 x 20502 km, 49.2° (Epoch: 08 August)

Event Time Altitude Azimuth Distance (km) Brightness Sun altitude
Rises 01:21:02 0° 227° (SW) 10,370 9.5 -5.9°
Reaches altitude 10° 01:31:36 10° 229° (SW) 6,480 8.5 -7.9°
Maximum altitude 01:44:55 81° 317° (NW) 921 4.0 -10.3°
Drops below altitude 10° 01:48:15 10° 45° (NE) 1,736 5.3 -10.8°
Sets 01:49:30 0° 47° (NE) 2,339 5.9 -11.1°
